Preview of NWS' New Version of Forecast
This preview is not operational and should not be used for support decisions.

Regional Weather Roundup (RWR)

Issued by National Weather Service (NWS)

                            
000
ASUS43 KFSD 200710
RWRSD 

WEATHER ROUNDUP FOR SOUTH DAKOTA
NATIONAL WEATHER SERVICE SIOUX FALLS SD
200 AM CDT MON MAY 20 2019

NOTE: "FAIR" INDICATES FEW OR NO CLOUDS BELOW 12,000 FEET WITH NO
SIGNIFICANT WEATHER AND/OR OBSTRUCTIONS TO VISIBILITY.


SDZ001>005-009-010-012>017-200800-
NORTHWEST AND NORTH CENTRAL SOUTH DAKOTA
  
CITY           SKY/WX    TMP DP  RH WIND       PRES   REMARKS
BUFFALO          N/A     38  32  79 E8        30.04F                  
FAITH            N/A     39  36  89 SE6       30.09S                  
MOBRIDGE       CLOUDY    45  39  79 CALM      30.08F                  
$$
 
SDZ012>016-024>037-041>051-057-063-072>074-200800-
SOUTHWEST AND SOUTH CENTRAL SOUTH DAKOTA
  
CITY           SKY/WX    TMP DP  RH WIND       PRES   REMARKS
RAPID CTY ARPT CLOUDY    37  34  89 CALM      30.08S                  
PIERRE         PTCLDY    37  37 100 CALM      30.10S                  
CUSTER         LGT SNOW  30  27  88 E8        30.02S FOG     WCI  22  
ELLSWORTH AFB  CLOUDY    38  38 100 CALM      30.08S                  
PHILIP         MOCLDY    38  37  97 CALM      30.11R                  
PINE RIDGE     CLOUDY    39  35  86 E8        30.08S                  
SPEARFISH      CLOUDY    36  34  93 E7        30.06S                  
WINNER         CLOUDY    42  38  85 CALM      30.12R                  
$$
 
SDZ004>011-016>023-039-040-200800-
NORTHEAST SOUTH DAKOTA
  
CITY           SKY/WX    TMP DP  RH WIND       PRES   REMARKS
ABERDEEN       MOCLDY    39  37  92 S6        30.13S                  
WATERTOWN      CLOUDY    39  36  89 W5        30.10S                  
BROOKINGS      CLOUDY    38  36  92 NW3       30.11S                  
SISSETON         N/A     41  38  89 W9        30.09F                  
$$
 
SDZ017-020-022-023-036>040-048>070-200800-
SOUTHEAST SOUTH DAKOTA
  
CITY           SKY/WX    TMP DP  RH WIND       PRES   REMARKS
SIOUX FALLS    CLEAR     38  34  85 N3        30.12R                  
HURON          PTCLDY    40  36  86 E3        30.13S                  
CHAMBERLAIN    PTCLDY    41  41 100 CALM      30.11S                  
MADISON        PTSUNNY   36  36 100 SW3       30.12S                  
MITCHELL       CLOUDY    43  40  89 NE5       30.13S                  
YANKTON        CLOUDY    42  38  85 NE7       30.12F                  
$$
 
ABBREVIATIONS USED IN REMARKS
   TC - TEMPERATURE IN CELSIUS
  WCI - WIND CHILL INDEX
   HX - HEAT INDEX
  VSB - VISIBILITY